Regional Weather Roundup
Issued by NWS

Home | Current Version | Previous Version | Text Only | Print | Product List | Glossary Off
Versions: 1 2 3 4 5 6 7 8 9 10 11 12 13 14 15 16 17 18 19 20 21 22 23 24 25 26 27 28 29 30 31 32 33 34 35 36 37 38 39 40 41 42 43 44 45 46 47 48 49 50

000
ASUS43 KLOT 250302
RWRIL

ILLINOIS REGIONAL WEATHER ROUNDUP
NATIONAL WEATHER SERVICE CHICAGO/ROMEOVILLE IL
1000 PM CDT SUN MAY 24 2015

NOTE: "FAIR" INDICATES FEW OR NO CLOUDS BELOW 12,000 FEET WITH NO
SIGNIFICANT WEATHER AND/OR OBSTRUCTIONS TO VISIBILITY.

* THESE STATIONS ARE NOT UNDER NWS QUALITY CONTROL. THEY ALSO MAY NOT
  REPORT WEATHER SUCH AS PRECIPITATION OR FOG.

ILZ001-002-007-009-015-016-024-250400-
NORTHWEST ILLINOIS

CITY           SKY/WX    TMP DP  RH WIND       PRES   REMARKS
MOLINE         MOCLDY    70  66  87 S9        29.85R
STERLING*      CLOUDY    68  64  88 SW6       29.88F
$$

ILZ003-004-008-010-011-017-018-250400-
NORTH CENTRAL ILLINOIS

CITY           SKY/WX    TMP DP  RH WIND       PRES   REMARKS
ROCKFORD       CLOUDY    68  65  90 SE8       29.90F
FREEPORT*      LGT RAIN  64  63  98 E3        29.91R
$$

ILZ005-006-012>014-019>023-250400-
NORTHEAST ILLINOIS

CITY           SKY/WX    TMP DP  RH WIND       PRES   REMARKS
CHICAGO-OHARE  MOCLDY    64  61  90 SE7       29.92S
CHICAGO-MIDWAY MOCLDY    71  64  78 S7        29.93S
AURORA         CLOUDY    70  64  81 W6        29.92R
WAUKEGAN       CLOUDY    59  56  89 SE6       29.92S
DUPAGE AIRPORT CLOUDY    69  64  84 SE9       29.90F
WHEELING       MOCLDY    63  60  90 SE5       29.93S
NORTHERLY ISL    N/A     59  56  89 CALM        N/A
$$

LMZ740>746-250400-
SOUTHERN LAKE MICHIGAN

STATION/POSITION SKY/WX   TEMP    WIND        PRES    VSBY  WAVE
                          AIR SEA DIR/SP/G                  HT/PER
                          (F)     (DEG/KT/KT) (MB)    (MI)  (FT/S)
SOUTHERN BUOY              48 38   90/ 12/ 12 1014.2F         1
HARRISON CRIB              57     110/  7/ 10   N/A
BURNHAM HARBOR             58      CALM  /  2   N/A
CALUMET HARBOR             59        CALM       N/A
BURNS HARBOR               77     180/ 14/ 20 1014.6S
MICHIGAN CITY              78     160/ 14/ 17   N/A
MICHIGAN CITY 6N           70 55  180/ 10/ 12   N/A           1
ST. JOSEPH                 68 56  190/ 10/ 12   N/A           1
$$

ILZ025>027-034>036-040-047-049-050-058-095>099-250400-
WEST-CENTRAL ILLINOIS

CITY           SKY/WX    TMP DP  RH WIND       PRES   REMARKS
QUINCY         CLOUDY    68  66  93 S10       29.87R
$$

ILZ028>032-037-038-041>044-048-051>054-059>061-250400-
CENTRAL ILLINOIS

CITY           SKY/WX    TMP DP  RH WIND       PRES   REMARKS
DECATUR        MOCLDY    77  63  61 S15       29.94S
PEORIA         CLOUDY    79  62  56 S12       29.88S HX  80
SPRINGFIELD    CLOUDY    78  64  61 S16       29.90S HX  80
TAYLORVILLE    NOT AVBL
$$

ILZ033-039-045-046-055>057-062-063-250400-
EAST-CENTRAL ILLINOIS

CITY           SKY/WX    TMP DP  RH WIND       PRES   REMARKS
CHAMPAIGN      MOCLDY    76  62  62 SE16      29.97R
MATTOON        PTCLDY    75  63  66 S13G23    29.97R
$$

ILZ079-100>102-250400-
SOUTHWEST ILLINOIS

CITY           SKY/WX    TMP DP  RH WIND       PRES   REMARKS
ALTON          CLOUDY    70  70 100 S12       29.93R
BELLEVILLE     TSTM      73  70  88 SW14      29.91R FOG
CAHOKIA*       RAIN      71  67  87 S6        29.92S
$$

ILZ064>066-069>071-074>076-080>082-084>086-088>090-092>094-250400-
SOUTH-CENTRAL ILLINOIS

CITY           SKY/WX    TMP DP  RH WIND       PRES   REMARKS
CARBONDALE     RAIN      68  64  87 S22G33    30.00F FOG
MT. VERNON     MOCLDY    77  64  65 S17       30.00R
$$

ILZ067-068-072-073-078-083-087-091-250400-
SOUTHEAST ILLINOIS

CITY           SKY/WX    TMP DP  RH WIND       PRES   REMARKS
LAWRENCEVILLE  PTCLDY    76  63  64 S15       30.03
ROBINSON*      PTCLDY    75  62  63 S8        30.03R
$$

ABBREVIATIONS USED IN REMARKS
   TC - TEMPERATURE IN CELSIUS
  WCI - WIND CHILL INDEX
   HX - HEAT INDEX
  VSB - VISIBILITY
$$



USA.gov is the U.S. government's official web portal to all federal, state and local government web resources and services.